sat.trackr.live / text

‹ back to catalog

SAUDISAT 5B

NORAD 43833 · 2018-102C

PAYLOAD ACTIVE UNKNOWN

§ Identity

Operator
Country
SAUD
Launch date
2018-12-07
Launch site
JSC
Launch vehicle
Mass (kg)
RCS (m²)

Purposes: earth_obs

External: N2YO · Heavens-Above · Gunter

§ Orbital elements

Epoch: 2026-09-09T04:00:31.156128Z

Period
94.18 min
Inclination
97.3102°
Eccentricity
0.0009829
Mean motion
15.29000453 rev/d
Perigee alt
472.1 km
Apogee alt
485.5 km
Semi-major
6,856.9 km
B*
1.7383e-4
RAAN
315.3548°
Arg perigee
188.6653°
Mean anomaly
171.4419°
Rev number
42,862

§ Raw data

SAUDISAT 5B1 43833U 18102C   26252.16702727  .00004827  00000+0  17383-3 0  99972 43833  97.3102 315.3548 0009829 188.6653 171.4419 15.29000453428627

JSON: /api/v1/satellites/43833 · /tle

For live sub-satellite position, see the globe view (requires WebGL).

§ Visibility from observer

Set your observer location to see the next 7 days of passes ≥ 10°. The values pass through the URL so the page stays shareable.

No JS? Fill the form by hand. The geolocation button needs JavaScript.

§ Radio — SatNOGS DB

ModeDescriptionDownlinkUplink
FM 401.35 401.350 MHz
FM 401.85 401.850 MHz

2 transmitters · refreshed weekly from db.satnogs.org